Year,Month,Day,Hour,Minute,Value (Times are PST for temperature in C)
2008,07,27,00,00,14.80
2008,07,27,00,01,14.80
2008,07,27,00,02,14.80
2008,07,27,00,03,14.80
2008,07,27,00,04,14.80
2008,07,27,00,05,14.80
2008,07,27,00,06,14.80
2008,07,27,00,07,14.80
2008,07,27,00,08,14.80
2008,07,27,00,09,14.80
2008,07,27,00,10,14.80
2008,07,27,00,11,14.80
2008,07,27,00,12,14.80
2008,07,27,01,02,14.50
2008,07,27,01,03,14.50
2008,07,27,01,04,14.50
2008,07,27,01,05,14.40
2008,07,27,01,06,14.40
2008,07,27,01,07,14.40
2008,07,27,01,08,14.40
2008,07,27,01,09,14.40
2008,07,27,01,10,14.40
2008,07,27,01,11,14.40
2008,07,27,01,12,14.40
2008,07,27,01,13,14.40
2008,07,27,01,14,14.40
2008,07,27,01,15,14.40
2008,07,27,01,16,14.40
2008,07,27,01,17,14.40
2008,07,27,01,18,14.40
2008,07,27,01,19,14.40
2008,07,27,01,20,14.40
2008,07,27,01,21,14.40
2008,07,27,01,22,14.30
2008,07,27,01,23,14.30
2008,07,27,01,24,14.30
2008,07,27,01,25,14.30
2008,07,27,01,26,14.30
2008,07,27,01,27,14.30
2008,07,27,01,28,14.30
2008,07,27,01,29,14.30
2008,07,27,01,30,14.30
2008,07,27,01,31,14.30
2008,07,27,01,32,14.30
2008,07,27,01,33,14.30
2008,07,27,01,34,14.30
2008,07,27,01,35,14.20
2008,07,27,01,36,14.20
2008,07,27,01,37,14.20
2008,07,27,01,38,14.20
2008,07,27,01,39,14.20
2008,07,27,01,40,14.20
2008,07,27,01,41,14.20
2008,07,27,01,42,14.20
2008,07,27,01,43,14.20
2008,07,27,01,44,14.20
2008,07,27,01,45,14.20
2008,07,27,01,46,14.20
2008,07,27,01,47,14.20
2008,07,27,01,48,14.20
2008,07,27,01,49,14.20
2008,07,27,01,50,14.20
2008,07,27,01,51,14.20
2008,07,27,01,52,14.20
2008,07,27,01,53,14.20
2008,07,27,01,54,14.20
2008,07,27,01,55,14.20
2008,07,27,01,56,14.20
2008,07,27,01,57,14.20
2008,07,27,01,58,14.10
2008,07,27,01,59,14.10
2008,07,27,02,00,14.10
2008,07,27,02,01,14.10
2008,07,27,02,02,14.10
2008,07,27,02,03,14.10
2008,07,27,02,04,14.10
2008,07,27,02,05,14.10
2008,07,27,02,06,14.10
2008,07,27,02,07,14.10
2008,07,27,02,08,14.10
2008,07,27,02,09,14.10
2008,07,27,02,10,14.00
2008,07,27,02,11,14.00
2008,07,27,02,12,14.00
2008,07,27,02,13,14.00
2008,07,27,02,14,14.00
2008,07,27,02,15,14.00
2008,07,27,02,16,14.00
2008,07,27,02,17,14.00
2008,07,27,02,18,14.00
2008,07,27,02,19,14.00
2008,07,27,02,20,14.00
2008,07,27,02,21,14.00
2008,07,27,02,22,14.00
2008,07,27,02,23,14.00
2008,07,27,02,24,14.00
2008,07,27,02,25,14.00
2008,07,27,02,26,14.00
2008,07,27,02,27,14.00
2008,07,27,02,28,14.00
2008,07,27,02,29,14.00
2008,07,27,02,30,14.00
2008,07,27,02,31,13.90
2008,07,27,02,32,13.90
2008,07,27,02,33,13.90
2008,07,27,02,34,13.90
2008,07,27,02,35,13.90
2008,07,27,02,36,13.90
2008,07,27,02,37,13.90
2008,07,27,02,38,13.90
2008,07,27,02,39,13.90
2008,07,27,02,40,13.90
2008,07,27,02,41,13.90
2008,07,27,02,42,13.90
2008,07,27,02,43,13.90
2008,07,27,02,44,13.90
2008,07,27,02,45,13.90
2008,07,27,02,46,13.90
2008,07,27,02,47,13.90
2008,07,27,02,48,13.90
2008,07,27,02,49,13.90
2008,07,27,02,50,13.90
2008,07,27,02,51,13.90
2008,07,27,02,52,13.90
2008,07,27,02,53,13.90
2008,07,27,02,54,13.90
2008,07,27,02,55,13.90
2008,07,27,02,56,13.90
2008,07,27,02,57,13.80
2008,07,27,02,58,13.80
2008,07,27,02,59,13.80
2008,07,27,03,00,13.80
2008,07,27,03,01,13.80
2008,07,27,03,02,13.80
2008,07,27,03,03,13.80
2008,07,27,03,04,13.80
2008,07,27,03,05,13.80
2008,07,27,03,06,13.80
2008,07,27,03,07,13.80
2008,07,27,03,08,13.80
2008,07,27,03,09,13.80
2008,07,27,03,10,13.70
2008,07,27,03,11,13.70
2008,07,27,03,12,13.70
2008,07,27,03,13,13.70
2008,07,27,03,14,13.70
2008,07,27,03,15,13.70
2008,07,27,03,16,13.70
2008,07,27,03,17,13.70
2008,07,27,03,18,13.70
2008,07,27,03,19,13.70
2008,07,27,03,20,13.70
2008,07,27,03,21,13.70
2008,07,27,03,22,13.70
2008,07,27,03,23,13.70
2008,07,27,03,24,13.70
2008,07,27,03,25,13.70
2008,07,27,03,26,13.70
2008,07,27,03,27,13.70
2008,07,27,03,28,13.70
2008,07,27,03,29,13.70
2008,07,27,03,30,13.70
2008,07,27,03,31,13.70
2008,07,27,03,32,13.70
2008,07,27,03,33,13.70
2008,07,27,03,34,13.70
2008,07,27,03,35,13.70
2008,07,27,03,36,13.70
2008,07,27,03,37,13.70
2008,07,27,03,38,13.70
2008,07,27,03,39,13.70
2008,07,27,03,40,13.70
2008,07,27,03,41,13.70
2008,07,27,03,42,13.60
2008,07,27,03,43,13.60
2008,07,27,03,44,13.60
2008,07,27,03,45,13.60
2008,07,27,03,46,13.60
2008,07,27,03,47,13.60
2008,07,27,03,48,13.60
2008,07,27,03,49,13.60
2008,07,27,03,50,13.60
2008,07,27,03,51,13.60
2008,07,27,03,52,13.60
2008,07,27,03,53,13.60
2008,07,27,03,54,13.60
2008,07,27,03,55,13.60
2008,07,27,03,56,13.60
2008,07,27,03,57,13.60
2008,07,27,03,58,13.60
2008,07,27,03,59,13.60
2008,07,27,04,00,13.60
2008,07,27,04,01,13.60
2008,07,27,04,02,13.60
2008,07,27,04,03,13.70
2008,07,27,04,04,13.70
2008,07,27,04,05,13.70
2008,07,27,04,06,13.70
2008,07,27,04,07,13.70
2008,07,27,04,08,13.70
2008,07,27,04,09,13.70
2008,07,27,04,10,13.70
2008,07,27,04,11,13.70
2008,07,27,04,12,13.80
2008,07,27,04,13,13.80
2008,07,27,04,14,13.80
2008,07,27,04,15,13.80
2008,07,27,04,16,13.90
2008,07,27,04,17,13.90
2008,07,27,04,18,13.90
2008,07,27,04,19,13.90
2008,07,27,04,20,13.90
2008,07,27,04,21,13.90
2008,07,27,04,22,13.90
2008,07,27,04,23,13.90
2008,07,27,04,24,13.90
2008,07,27,04,25,13.90
2008,07,27,04,26,13.90
2008,07,27,04,27,13.90
2008,07,27,04,28,14.00
2008,07,27,04,29,14.00
2008,07,27,04,30,14.00
2008,07,27,04,31,14.00
2008,07,27,04,32,14.00
2008,07,27,04,33,14.00
2008,07,27,04,34,14.00
2008,07,27,04,35,14.00
2008,07,27,04,36,14.10
2008,07,27,04,37,14.10
2008,07,27,04,38,14.10
2008,07,27,04,39,14.10
2008,07,27,04,40,14.10
2008,07,27,04,41,14.10
2008,07,27,04,42,14.10
2008,07,27,04,43,14.10
2008,07,27,04,44,14.10
2008,07,27,04,45,14.10
2008,07,27,04,46,14.10
2008,07,27,04,47,14.10
2008,07,27,04,48,14.10
2008,07,27,04,49,14.10
2008,07,27,04,50,14.10
2008,07,27,04,51,14.10
2008,07,27,04,52,14.10
2008,07,27,04,53,14.10
2008,07,27,04,54,14.10
2008,07,27,04,55,14.10
2008,07,27,04,56,14.10
2008,07,27,04,57,14.10
2008,07,27,04,58,14.10
2008,07,27,04,59,14.10
2008,07,27,05,00,14.10
2008,07,27,05,01,14.10
2008,07,27,05,02,14.10
2008,07,27,05,03,14.10
2008,07,27,05,04,14.10
2008,07,27,05,05,14.10
2008,07,27,05,06,14.10
2008,07,27,05,07,14.10
2008,07,27,05,08,14.10
2008,07,27,05,09,14.10
2008,07,27,05,10,14.10
2008,07,27,05,11,14.10
2008,07,27,05,12,14.10
2008,07,27,05,13,14.10
2008,07,27,05,14,14.10
2008,07,27,05,15,14.10
2008,07,27,05,16,14.10
2008,07,27,05,17,14.10
2008,07,27,05,18,14.10
2008,07,27,05,19,14.10
2008,07,27,05,20,14.10
2008,07,27,05,21,14.10
2008,07,27,05,22,14.10
2008,07,27,05,23,14.10
2008,07,27,05,24,14.10
2008,07,27,05,25,14.10
2008,07,27,05,26,14.10
2008,07,27,05,27,14.10
2008,07,27,05,28,14.10
2008,07,27,05,29,14.10
2008,07,27,05,30,14.10
2008,07,27,05,31,14.10
2008,07,27,05,32,14.10
2008,07,27,05,33,14.10
2008,07,27,05,34,14.10
2008,07,27,05,35,14.10
2008,07,27,05,36,14.10
2008,07,27,05,37,14.10
2008,07,27,05,38,14.10
2008,07,27,05,39,14.10
2008,07,27,05,40,14.10
2008,07,27,05,41,14.10
2008,07,27,05,42,14.10
2008,07,27,05,43,14.10
2008,07,27,05,44,14.00
2008,07,27,05,45,14.00
2008,07,27,05,46,14.00
2008,07,27,05,47,14.00
2008,07,27,05,48,14.00
2008,07,27,05,49,14.00
2008,07,27,05,50,14.00
2008,07,27,05,51,14.00
2008,07,27,05,52,14.00
2008,07,27,05,53,14.00
2008,07,27,05,54,14.00
2008,07,27,05,55,13.90
2008,07,27,05,56,13.90
2008,07,27,05,57,13.90
2008,07,27,05,58,13.90
2008,07,27,05,59,13.90
2008,07,27,06,00,13.90
2008,07,27,06,01,13.80
2008,07,27,06,02,13.80
2008,07,27,06,03,13.80
2008,07,27,06,04,13.80
2008,07,27,06,05,13.80
2008,07,27,06,06,13.80
2008,07,27,06,07,13.80
2008,07,27,06,08,13.70
2008,07,27,06,09,13.70
2008,07,27,06,10,13.70
2008,07,27,06,11,13.70
2008,07,27,06,12,13.70
2008,07,27,06,13,13.70
2008,07,27,06,14,13.70
2008,07,27,06,15,13.70
2008,07,27,06,16,13.70
2008,07,27,06,17,13.70
2008,07,27,06,18,13.70
2008,07,27,06,19,13.60
2008,07,27,06,20,13.60
2008,07,27,06,21,13.60
2008,07,27,06,22,13.60
2008,07,27,06,23,13.60
2008,07,27,06,24,13.60
2008,07,27,06,25,13.60
2008,07,27,06,26,13.50
2008,07,27,06,27,13.50
2008,07,27,06,28,13.50
2008,07,27,06,29,13.50
2008,07,27,06,30,13.50
2008,07,27,06,31,13.50
2008,07,27,06,32,13.50
2008,07,27,06,33,13.50
2008,07,27,06,34,13.50
2008,07,27,06,35,13.50
2008,07,27,06,36,13.50
2008,07,27,06,37,13.50
2008,07,27,06,38,13.50
2008,07,27,06,39,13.50
2008,07,27,06,40,13.50
2008,07,27,06,41,13.50
2008,07,27,06,42,13.50
2008,07,27,06,43,13.50
2008,07,27,06,44,13.50
2008,07,27,06,45,13.50
2008,07,27,06,46,13.50
2008,07,27,06,47,13.50
2008,07,27,06,48,13.50
2008,07,27,06,49,13.50
2008,07,27,06,50,13.50
2008,07,27,06,51,13.50
2008,07,27,06,52,13.50
2008,07,27,06,53,13.50
2008,07,27,06,54,13.50
2008,07,27,06,55,13.50
2008,07,27,06,56,13.50
2008,07,27,06,57,13.50
2008,07,27,06,58,13.50
2008,07,27,06,59,13.50
2008,07,27,07,00,13.50
2008,07,27,07,01,13.50
2008,07,27,07,02,13.50
2008,07,27,07,03,13.50
2008,07,27,07,04,13.50
2008,07,27,07,05,13.50
2008,07,27,07,06,13.50
2008,07,27,07,07,13.50
2008,07,27,07,08,13.50
2008,07,27,07,09,13.50
2008,07,27,07,10,13.50
2008,07,27,07,11,13.50
2008,07,27,07,12,13.50
2008,07,27,07,13,13.50
2008,07,27,07,14,13.50
2008,07,27,07,15,13.50
2008,07,27,07,16,13.50
2008,07,27,07,17,13.50
2008,07,27,07,18,13.50
2008,07,27,07,19,13.50
2008,07,27,07,20,13.60
2008,07,27,07,21,13.60
2008,07,27,07,22,13.60
2008,07,27,07,23,13.60
2008,07,27,07,24,13.60
2008,07,27,07,25,13.60
2008,07,27,07,26,13.60
2008,07,27,07,27,13.60
2008,07,27,07,28,13.70
2008,07,27,07,29,13.70
2008,07,27,07,30,13.70
2008,07,27,07,31,13.70
2008,07,27,07,32,13.70
2008,07,27,07,33,13.70
2008,07,27,07,34,13.70
2008,07,27,07,35,13.70
2008,07,27,07,36,13.80
2008,07,27,07,37,13.80
2008,07,27,07,38,13.80
2008,07,27,07,39,13.80
2008,07,27,07,40,13.90
2008,07,27,07,41,13.90
2008,07,27,07,42,13.90
2008,07,27,07,43,13.90
2008,07,27,07,44,14.00
2008,07,27,07,45,14.00
2008,07,27,07,46,14.00
2008,07,27,07,47,14.00
2008,07,27,07,48,14.00
2008,07,27,07,49,14.00
2008,07,27,07,50,14.00
2008,07,27,07,51,14.00
2008,07,27,07,52,14.00
2008,07,27,07,53,14.00
2008,07,27,07,54,14.00
2008,07,27,07,55,14.00
2008,07,27,07,56,14.00
2008,07,27,07,57,14.00
2008,07,27,07,58,14.00
2008,07,27,07,59,14.00
2008,07,27,08,00,14.00
2008,07,27,08,01,14.00
2008,07,27,08,02,14.00
2008,07,27,08,03,14.00
2008,07,27,08,04,14.00
2008,07,27,08,05,14.00
2008,07,27,08,06,14.00
2008,07,27,08,07,14.00
2008,07,27,08,08,14.00
2008,07,27,08,09,14.00
2008,07,27,08,10,14.00
2008,07,27,08,11,14.00
2008,07,27,08,12,14.00
2008,07,27,08,13,14.00
2008,07,27,08,14,14.00
2008,07,27,08,15,14.00
2008,07,27,08,16,14.10
2008,07,27,08,17,14.10
2008,07,27,08,18,14.10
2008,07,27,08,19,14.10
2008,07,27,08,20,14.20
2008,07,27,08,21,14.20
2008,07,27,08,22,14.20
2008,07,27,08,23,14.20
2008,07,27,08,24,14.20
2008,07,27,08,25,14.20
2008,07,27,08,26,14.30
2008,07,27,08,27,14.30
2008,07,27,08,28,14.30
2008,07,27,08,29,14.30
2008,07,27,08,30,14.40
2008,07,27,08,31,14.40
2008,07,27,08,32,14.40
2008,07,27,08,33,14.40
2008,07,27,08,34,14.50
2008,07,27,08,35,14.50
2008,07,27,08,36,14.50
2008,07,27,08,37,14.60
2008,07,27,08,38,14.60
2008,07,27,08,39,14.70
2008,07,27,08,40,14.70
2008,07,27,08,41,14.70
2008,07,27,08,42,14.70
2008,07,27,08,43,14.80
2008,07,27,08,44,14.80
2008,07,27,08,45,14.80
2008,07,27,08,46,14.80
2008,07,27,08,47,14.80
2008,07,27,08,48,14.80
2008,07,27,08,49,14.80
2008,07,27,08,50,14.80
2008,07,27,08,51,14.90
2008,07,27,08,52,14.90
2008,07,27,08,53,14.90
2008,07,27,08,54,15.00
2008,07,27,08,55,15.00
2008,07,27,08,56,15.00
2008,07,27,08,57,15.00
2008,07,27,08,58,15.10
2008,07,27,08,59,15.10
2008,07,27,09,00,15.10
2008,07,27,09,01,15.20
2008,07,27,09,02,15.20
2008,07,27,09,03,15.20
2008,07,27,09,04,15.20
2008,07,27,09,05,15.20
2008,07,27,09,06,15.20
2008,07,27,09,07,15.30
2008,07,27,09,08,15.30
2008,07,27,09,09,15.30
2008,07,27,09,10,15.30
2008,07,27,09,11,15.30
2008,07,27,09,12,15.30
2008,07,27,09,13,15.30
2008,07,27,09,14,15.30
2008,07,27,09,15,15.40
2008,07,27,09,16,15.40
2008,07,27,09,17,15.40
2008,07,27,09,18,15.40
2008,07,27,09,19,15.40
2008,07,27,09,20,15.50
2008,07,27,09,21,15.50
2008,07,27,09,22,15.60
2008,07,27,09,23,15.60
2008,07,27,09,24,15.60
2008,07,27,09,25,15.60
2008,07,27,09,26,15.60
2008,07,27,09,27,15.60
2008,07,27,09,28,15.60
2008,07,27,09,29,15.70
2008,07,27,09,30,15.70
2008,07,27,09,31,15.80
2008,07,27,09,32,15.80
2008,07,27,09,33,15.90
2008,07,27,09,34,16.00
2008,07,27,09,35,16.10
2008,07,27,09,36,16.10
2008,07,27,09,37,16.10
2008,07,27,09,38,16.20
2008,07,27,09,39,16.30
2008,07,27,09,40,16.40
2008,07,27,09,41,16.40
2008,07,27,09,42,16.40
2008,07,27,09,43,16.50
2008,07,27,09,44,16.60
2008,07,27,09,45,16.70
2008,07,27,09,46,16.70
2008,07,27,09,47,16.70
2008,07,27,09,48,16.70
2008,07,27,09,49,16.80
2008,07,27,09,50,16.80
2008,07,27,09,51,16.80
2008,07,27,09,52,16.80
2008,07,27,09,53,16.80
2008,07,27,09,54,16.70
2008,07,27,09,55,16.70
2008,07,27,09,56,16.70
2008,07,27,09,57,16.70
2008,07,27,09,58,16.70
2008,07,27,09,59,16.70
2008,07,27,10,00,16.80
2008,07,27,10,01,16.80
2008,07,27,10,02,16.90
2008,07,27,10,03,17.00
2008,07,27,10,04,17.10
2008,07,27,10,05,17.20
2008,07,27,10,06,17.30
2008,07,27,10,07,17.30
2008,07,27,10,08,17.30
2008,07,27,10,09,17.30
2008,07,27,10,10,17.30
2008,07,27,10,11,17.30
2008,07,27,10,12,17.30
2008,07,27,10,13,17.20
2008,07,27,10,14,17.20
2008,07,27,10,15,17.20
2008,07,27,10,16,17.20
2008,07,27,10,17,17.20
2008,07,27,10,18,17.20
2008,07,27,10,19,17.20
2008,07,27,10,20,17.20
2008,07,27,10,21,17.20
2008,07,27,10,22,17.20
2008,07,27,10,23,17.30
2008,07,27,10,24,17.30
2008,07,27,10,25,17.30
2008,07,27,10,26,17.30
2008,07,27,10,27,17.30
2008,07,27,10,28,17.30
2008,07,27,10,29,17.30
2008,07,27,10,30,17.30
2008,07,27,10,31,17.40
2008,07,27,10,32,17.40
2008,07,27,10,33,17.50
2008,07,27,10,34,17.50
2008,07,27,10,35,17.60
2008,07,27,10,36,17.80
2008,07,27,10,37,17.90
2008,07,27,10,38,17.90
2008,07,27,10,39,17.90
2008,07,27,10,40,18.10
2008,07,27,10,41,18.10
2008,07,27,10,42,18.20
2008,07,27,10,43,18.30
2008,07,27,10,44,18.30
2008,07,27,10,45,18.40
2008,07,27,10,46,18.50
2008,07,27,10,47,18.50
2008,07,27,10,48,18.60
2008,07,27,10,49,18.70
2008,07,27,10,50,18.70
2008,07,27,10,51,18.70
2008,07,27,10,52,18.60
2008,07,27,10,53,18.60
2008,07,27,10,54,18.60
2008,07,27,10,55,18.60
2008,07,27,10,56,18.60
2008,07,27,10,57,18.60
2008,07,27,10,58,18.60
2008,07,27,10,59,18.60
2008,07,27,11,00,18.60
2008,07,27,11,01,18.50
2008,07,27,11,02,18.50
2008,07,27,11,03,18.50
2008,07,27,11,04,18.60
2008,07,27,11,05,18.70
2008,07,27,11,06,18.80
2008,07,27,11,07,18.90
2008,07,27,11,08,19.00
2008,07,27,11,09,19.10
2008,07,27,11,10,19.20
2008,07,27,11,11,19.20
2008,07,27,11,12,19.20
2008,07,27,11,13,19.30
2008,07,27,11,14,19.30
2008,07,27,11,15,19.40
2008,07,27,11,16,19.40
2008,07,27,11,17,19.50
2008,07,27,11,18,19.60
2008,07,27,11,19,19.70
2008,07,27,11,20,19.70
2008,07,27,11,21,19.70
2008,07,27,11,22,19.70
2008,07,27,11,23,19.80
2008,07,27,11,24,19.80
2008,07,27,11,25,19.70
2008,07,27,11,26,19.70
2008,07,27,11,27,19.60
2008,07,27,11,28,19.60
2008,07,27,11,29,19.60
2008,07,27,11,30,19.60
2008,07,27,11,31,19.60
2008,07,27,11,32,19.60
2008,07,27,11,33,19.60
2008,07,27,11,34,19.60
2008,07,27,11,35,19.60
2008,07,27,11,36,19.60
2008,07,27,11,37,19.70
2008,07,27,11,38,19.70
2008,07,27,11,39,19.80
2008,07,27,11,40,19.80
2008,07,27,11,41,19.90
2008,07,27,11,42,19.90
2008,07,27,11,43,19.90
2008,07,27,11,44,19.90
2008,07,27,11,45,19.90
2008,07,27,11,46,19.80
2008,07,27,11,47,19.80
2008,07,27,11,48,19.70
2008,07,27,11,49,19.60
2008,07,27,11,50,19.50
2008,07,27,11,51,19.50
2008,07,27,11,52,19.40
2008,07,27,11,53,19.40
2008,07,27,11,54,19.40
2008,07,27,11,55,19.40
2008,07,27,11,56,19.40
2008,07,27,11,57,19.30
2008,07,27,11,58,19.30
2008,07,27,11,59,19.20
2008,07,27,12,00,19.10
2008,07,27,12,01,19.10
2008,07,27,12,02,19.10
2008,07,27,12,03,19.10
2008,07,27,12,04,19.00
2008,07,27,12,05,18.90
2008,07,27,12,06,18.90
2008,07,27,12,07,18.90
2008,07,27,12,08,18.90
2008,07,27,12,09,18.90
2008,07,27,12,10,18.90
2008,07,27,12,11,18.90
2008,07,27,12,12,18.90
2008,07,27,12,13,18.90
2008,07,27,12,14,19.00
2008,07,27,12,15,19.10
2008,07,27,12,16,19.10
2008,07,27,12,17,19.10
2008,07,27,12,18,18.90
2008,07,27,12,19,18.90
2008,07,27,12,20,18.90
2008,07,27,12,21,18.90
2008,07,27,12,22,18.90
2008,07,27,12,23,18.90
2008,07,27,12,24,18.90
2008,07,27,12,25,18.90
2008,07,27,12,26,18.90
2008,07,27,12,27,18.90
2008,07,27,12,28,18.90
2008,07,27,12,29,18.90
2008,07,27,12,30,18.90
2008,07,27,12,31,18.90
2008,07,27,12,32,18.90
2008,07,27,12,33,18.90
2008,07,27,12,34,18.90
2008,07,27,12,35,18.90
2008,07,27,12,36,18.90
2008,07,27,12,37,18.90
2008,07,27,12,38,18.90
2008,07,27,12,39,18.90
2008,07,27,12,40,18.80
2008,07,27,12,41,18.80
2008,07,27,12,42,18.80
2008,07,27,12,43,18.80
2008,07,27,12,44,18.70
2008,07,27,12,45,18.70
2008,07,27,12,46,18.70
2008,07,27,12,47,18.60
2008,07,27,12,48,18.60
2008,07,27,12,49,18.60
2008,07,27,12,50,18.60
2008,07,27,12,51,18.60
2008,07,27,12,52,18.50
2008,07,27,12,53,18.50
2008,07,27,12,54,18.50
2008,07,27,12,55,18.50
2008,07,27,12,56,18.50
2008,07,27,12,57,18.50
2008,07,27,12,58,18.50
2008,07,27,12,59,18.50
2008,07,27,13,00,18.50
2008,07,27,13,01,18.50
2008,07,27,13,02,18.50
2008,07,27,13,03,18.50
2008,07,27,13,04,18.60
2008,07,27,13,05,18.60
2008,07,27,13,06,18.70
2008,07,27,13,07,18.80
2008,07,27,13,08,18.90
2008,07,27,13,09,18.90
2008,07,27,13,10,19.00
2008,07,27,13,11,19.10
2008,07,27,13,12,19.10
2008,07,27,13,13,19.10
2008,07,27,13,14,19.10
2008,07,27,13,15,19.20
2008,07,27,13,16,19.30
2008,07,27,13,17,19.30
2008,07,27,13,18,19.30
2008,07,27,13,19,19.40
2008,07,27,13,20,19.40
2008,07,27,13,21,19.50
2008,07,27,13,22,19.50
2008,07,27,13,23,19.60
2008,07,27,13,24,19.60
2008,07,27,13,25,19.70
2008,07,27,13,26,19.70
2008,07,27,13,27,19.70
2008,07,27,13,28,19.60
2008,07,27,13,29,19.60
2008,07,27,13,30,19.50
2008,07,27,13,31,19.50
2008,07,27,13,32,19.50
2008,07,27,13,33,19.50
2008,07,27,13,34,19.50
2008,07,27,13,35,19.60
2008,07,27,13,36,19.60
2008,07,27,13,37,19.60
2008,07,27,13,38,19.60
2008,07,27,13,39,19.60
2008,07,27,13,40,19.60
2008,07,27,13,41,19.60
2008,07,27,13,42,19.70
2008,07,27,13,43,19.80
2008,07,27,13,44,19.80
2008,07,27,13,45,19.90
2008,07,27,13,46,19.90
2008,07,27,13,47,20.00
2008,07,27,13,48,20.10
2008,07,27,13,49,20.10
2008,07,27,13,50,20.10
2008,07,27,13,51,20.10
2008,07,27,13,52,20.20
2008,07,27,13,53,20.20
2008,07,27,13,54,20.20
2008,07,27,13,55,20.20
2008,07,27,13,56,20.20
2008,07,27,13,57,20.20
2008,07,27,13,58,20.20
2008,07,27,13,59,20.20
2008,07,27,14,00,20.20
2008,07,27,14,01,20.20
2008,07,27,14,02,20.20
2008,07,27,14,03,20.20
2008,07,27,14,04,20.20
2008,07,27,14,05,20.20
2008,07,27,14,06,20.20
2008,07,27,14,07,20.20
2008,07,27,14,08,20.20
2008,07,27,14,09,20.20
2008,07,27,14,10,20.20
2008,07,27,14,11,20.20
2008,07,27,14,12,20.20
2008,07,27,14,13,20.20
2008,07,27,14,14,20.20
2008,07,27,14,15,20.20
2008,07,27,14,16,20.30
2008,07,27,14,17,20.30
2008,07,27,14,18,20.30
2008,07,27,14,19,20.30
2008,07,27,14,20,20.30
2008,07,27,14,21,20.30
2008,07,27,14,22,20.30
2008,07,27,14,23,20.20
2008,07,27,14,24,20.20
2008,07,27,14,25,20.30
2008,07,27,14,26,20.40
2008,07,27,14,27,20.50
2008,07,27,14,28,20.60
2008,07,27,14,29,20.70
2008,07,27,14,30,20.80
2008,07,27,14,31,20.90
2008,07,27,14,32,21.00
2008,07,27,14,33,21.00
2008,07,27,14,34,21.00
2008,07,27,14,35,21.00
2008,07,27,14,36,21.10
2008,07,27,14,37,21.30
2008,07,27,14,38,21.40
2008,07,27,14,39,21.60
2008,07,27,14,40,21.90
2008,07,27,14,41,22.10
2008,07,27,14,42,22.30
2008,07,27,14,43,22.50
2008,07,27,14,44,22.60
2008,07,27,14,45,22.50
2008,07,27,14,46,22.50
2008,07,27,14,47,22.40
2008,07,27,14,48,22.30
2008,07,27,14,49,22.20
2008,07,27,14,50,22.10
2008,07,27,14,51,22.00
2008,07,27,14,52,21.80
2008,07,27,14,53,21.70
2008,07,27,14,54,21.60
2008,07,27,14,55,21.60
2008,07,27,14,56,21.40
2008,07,27,14,57,21.30
2008,07,27,14,58,21.30
2008,07,27,14,59,21.40
2008,07,27,15,00,21.40
2008,07,27,15,01,21.30
2008,07,27,15,02,21.30
2008,07,27,15,03,21.30
2008,07,27,15,04,21.30
2008,07,27,15,05,21.30
2008,07,27,15,06,21.30
2008,07,27,15,07,21.30
2008,07,27,15,08,21.20
2008,07,27,15,09,21.20
2008,07,27,15,10,21.20
2008,07,27,15,11,21.20
2008,07,27,15,12,21.10
2008,07,27,15,13,21.10
2008,07,27,15,14,21.10
2008,07,27,15,15,21.10
2008,07,27,15,16,21.00
2008,07,27,15,17,21.00
2008,07,27,15,18,21.00
2008,07,27,15,19,21.10
2008,07,27,15,20,21.10
2008,07,27,15,21,21.10
2008,07,27,15,22,21.10
2008,07,27,15,23,21.20
2008,07,27,15,24,21.20
2008,07,27,15,25,21.10
2008,07,27,15,26,21.10
2008,07,27,15,27,21.00
2008,07,27,15,28,21.00
2008,07,27,15,29,20.90
2008,07,27,15,30,20.90
2008,07,27,15,31,20.90
2008,07,27,15,32,20.90
2008,07,27,15,33,20.90
2008,07,27,15,34,20.80
2008,07,27,15,35,20.80
2008,07,27,15,36,20.80
2008,07,27,15,37,20.70
2008,07,27,15,38,20.60
2008,07,27,15,39,20.60
2008,07,27,15,40,20.60
2008,07,27,15,41,20.60
2008,07,27,15,42,20.60
2008,07,27,15,43,20.50
2008,07,27,15,44,20.50
2008,07,27,15,45,20.40
2008,07,27,15,46,20.40
2008,07,27,15,47,20.30
2008,07,27,15,48,20.30
2008,07,27,15,49,20.30
2008,07,27,15,50,20.30
2008,07,27,15,51,20.30
2008,07,27,15,52,20.30
2008,07,27,15,53,20.30
2008,07,27,15,54,20.20
2008,07,27,15,55,20.20
2008,07,27,15,56,20.20
2008,07,27,15,57,20.00
2008,07,27,15,58,20.00
2008,07,27,15,59,20.10
2008,07,27,16,00,20.20
2008,07,27,16,01,20.50
2008,07,27,16,02,20.70
2008,07,27,16,03,20.80
2008,07,27,16,04,20.90
2008,07,27,16,05,20.90
2008,07,27,16,06,20.90
2008,07,27,16,07,21.00
2008,07,27,16,08,21.00
2008,07,27,16,09,21.00
2008,07,27,16,10,21.00
2008,07,27,16,11,21.10
2008,07,27,16,12,21.10
2008,07,27,16,13,21.20
2008,07,27,16,14,21.20
2008,07,27,16,15,21.20
2008,07,27,16,16,21.20
2008,07,27,16,17,21.20
2008,07,27,16,18,21.20
2008,07,27,16,19,21.20
2008,07,27,16,20,21.20
2008,07,27,16,21,21.30
2008,07,27,16,22,21.30
2008,07,27,16,23,21.40
2008,07,27,16,24,21.40
2008,07,27,16,25,21.30
2008,07,27,16,26,21.30
2008,07,27,16,27,21.30
2008,07,27,16,28,21.20
2008,07,27,16,29,21.20
2008,07,27,16,30,21.10
2008,07,27,16,31,21.10
2008,07,27,16,32,21.00
2008,07,27,16,33,21.00
2008,07,27,16,34,20.90
2008,07,27,16,35,20.90
2008,07,27,16,36,20.90
2008,07,27,16,37,21.00
2008,07,27,16,38,21.10
2008,07,27,16,39,21.10
2008,07,27,16,40,21.20
2008,07,27,16,41,21.10
2008,07,27,16,42,21.10
2008,07,27,16,43,21.00
2008,07,27,16,44,21.00
2008,07,27,16,45,20.90
2008,07,27,16,46,20.90
2008,07,27,16,47,20.80
2008,07,27,16,48,20.80
2008,07,27,16,49,20.80
2008,07,27,16,50,20.80
2008,07,27,16,51,20.80
2008,07,27,16,52,20.90
2008,07,27,16,53,20.90
2008,07,27,16,54,21.00
2008,07,27,16,55,21.10
2008,07,27,16,56,21.10
2008,07,27,16,57,21.20
2008,07,27,16,58,21.20
2008,07,27,16,59,21.20
2008,07,27,17,00,21.10
2008,07,27,17,01,21.10
2008,07,27,17,02,21.10
2008,07,27,17,03,21.00
2008,07,27,17,04,21.00
2008,07,27,17,05,21.00
2008,07,27,17,06,21.00
2008,07,27,17,07,21.00
2008,07,27,17,08,20.90
2008,07,27,17,09,20.80
2008,07,27,17,10,20.80
2008,07,27,17,11,20.70
2008,07,27,17,12,20.70
2008,07,27,17,13,20.70
2008,07,27,17,14,20.70
2008,07,27,17,15,20.70
2008,07,27,17,16,20.70
2008,07,27,17,17,20.70
2008,07,27,17,18,20.80
2008,07,27,17,19,20.80
2008,07,27,17,20,20.90
2008,07,27,17,21,20.90
2008,07,27,17,22,20.90
2008,07,27,17,23,21.00
2008,07,27,17,24,21.00
2008,07,27,17,25,21.10
2008,07,27,17,26,21.20
2008,07,27,17,27,21.30
2008,07,27,17,28,21.30
2008,07,27,17,29,21.20
2008,07,27,17,30,21.10
2008,07,27,17,31,21.00
2008,07,27,17,32,21.00
2008,07,27,17,33,20.90
2008,07,27,17,34,20.80
2008,07,27,17,35,20.70
2008,07,27,17,36,20.70
2008,07,27,17,37,20.60
2008,07,27,17,38,20.60
2008,07,27,17,39,20.60
2008,07,27,17,40,20.60
2008,07,27,17,41,20.60
2008,07,27,17,42,20.60
2008,07,27,17,43,20.60
2008,07,27,17,44,20.60
2008,07,27,17,45,20.60
2008,07,27,17,46,20.60
2008,07,27,17,47,20.50
2008,07,27,17,48,20.50
2008,07,27,17,49,20.50
2008,07,27,17,50,20.50
2008,07,27,17,51,20.50
2008,07,27,17,52,20.50
2008,07,27,17,53,20.50
2008,07,27,17,54,20.60
2008,07,27,17,55,20.60
2008,07,27,17,56,20.60
2008,07,27,17,57,20.50
2008,07,27,17,58,20.60
2008,07,27,17,59,20.60
2008,07,27,18,00,20.80
2008,07,27,18,01,20.90
2008,07,27,18,02,20.90
2008,07,27,18,03,20.90
2008,07,27,18,04,20.90
2008,07,27,18,05,20.90
2008,07,27,18,06,20.80
2008,07,27,18,07,20.80
2008,07,27,18,08,20.80